• In Belgium
  • List of Countries
  • For 7 days
  • Water Temperature
  • Satellite Maps
  • Weather Map
  • Weather Widgets
  • user-avatar
    Login

    Hourly Weather Seli

    Today, 24 October, Tuesday

    Time Temperature Precipitation Wind Pressure Humidity
    00:00 +20°C° 0.2 mm 7 mps 743 mmHg 82%
    01:00 +20°C° 0.2 mm 7 mps 742 mmHg 82%
    02:00 +18°C° 0.2 mm 7 mps 742 mmHg 83%
    03:00 +18°C° 0.1 mm 7 mps 742 mmHg 80%
    04:00 +18°C° 0.1 mm 7 mps 742 mmHg 77%
    05:00 +18°C° 0.1 mm 7 mps 742 mmHg 75%
    06:00 +18°C° 0.1 mm 7 mps 742 mmHg 71%
    07:00 +18°C° 0.1 mm 8 mps 742 mmHg 68%
    08:00 +20°C° 0.1 mm 8 mps 742 mmHg 65%
    09:00 +20°C° 0.1 mm 8 mps 742 mmHg 60%
    10:00 +21°C° 0.1 mm 8 mps 742 mmHg 56%
    11:00 +22°C° 0.1 mm 8 mps 743 mmHg 51%
    12:00 +22°C° 0.2 mm 8 mps 743 mmHg 50%
    13:00 +22°C° 0.2 mm 8 mps 743 mmHg 49%
    14:00 +22°C° 0.2 mm 8 mps 743 mmHg 48%
    15:00 +21°C° 0.1 mm 8 mps 743 mmHg 50%
    16:00 +20°C° 0.1 mm 8 mps 743 mmHg 51%
    17:00 +20°C° 0.1 mm 8 mps 742 mmHg 52%
    18:00 +18°C° 0.1 mm 7 mps 743 mmHg 55%
    19:00 +18°C° 0.1 mm 7 mps 743 mmHg 58%
    20:00 +17°C° 0.1 mm 6 mps 744 mmHg 60%
    21:00 +17°C° 0.3 mm 6 mps 744 mmHg 62%
    22:00 +17°C° 0.3 mm 5 mps 744 mmHg 65%
    23:00 +16°C° 0.3 mm 5 mps 744 mmHg 67%

    Tomorrow, 25 October, Wednesday

    Time Temperature Precipitation Wind Pressure Humidity
    00:00 +16°C° 0.1 mm 5 mps 744 mmHg 68%
    01:00 +16°C° 0.1 mm 5 mps 744 mmHg 70%
    02:00 +16°C° 0.1 mm 5 mps 744 mmHg 71%
    03:00 +17°C° 0.2 mm 4 mps 744 mmHg 72%
    04:00 +17°C° 0.2 mm 4 mps 744 mmHg 72%
    05:00 +17°C° 0.2 mm 4 mps 744 mmHg 72%
    06:00 +17°C° 0.5 mm 3 mps 744 mmHg 70%
    07:00 +17°C° 0.5 mm 3 mps 745 mmHg 69%
    08:00 +18°C° 0.5 mm 3 mps 745 mmHg 67%
    09:00 +18°C° 0.6 mm 3 mps 745 mmHg 64%
    10:00 +19°C° 0.6 mm 3 mps 746 mmHg 60%
    11:00 +20°C° 0.6 mm 3 mps 746 mmHg 57%
    12:00 +20°C° 0.5 mm 2 mps 746 mmHg 56%
    13:00 +20°C° 0.5 mm 2 mps 746 mmHg 55%
    14:00 +21°C° 0.5 mm 2 mps 746 mmHg 54%
    15:00 +20°C° 0.2 mm 2 mps 747 mmHg 55%
    16:00 +20°C° 0.2 mm 2 mps 747 mmHg 57%
    17:00 +20°C° 0.2 mm 3 mps 747 mmHg 59%
    18:00 +19°C° 0.3 mm 3 mps 748 mmHg 61%
    19:00 +19°C° 0.3 mm 4 mps 748 mmHg 63%
    20:00 +19°C° 0.3 mm 5 mps 749 mmHg 65%
    21:00 +17°C° 0.3 mm 5 mps 749 mmHg 66%
    22:00 +17°C° 0.3 mm 5 mps 750 mmHg 66%
    23:00 +17°C° 0.3 mm 5 mps 750 mmHg 67%

    Day after tomorrow, 26 October, Thursday

    Time Temperature Precipitation Wind Pressure Humidity
    00:00 +17°C° 0.3 mm 5 mps 750 mmHg 65%
    01:00 +17°C° 0.3 mm 5 mps 750 mmHg 64%
    02:00 +19°C° 0.3 mm 5 mps 751 mmHg 63%
    03:00 +19°C° 0.5 mm 6 mps 751 mmHg 63%
    04:00 +19°C° 0.5 mm 6 mps 751 mmHg 63%
    05:00 +19°C° 0.5 mm 6 mps 751 mmHg 64%
    06:00 +19°C° 0.6 mm 6 mps 751 mmHg 63%
    07:00 +18°C° 0.6 mm 7 mps 752 mmHg 63%
    08:00 +20°C° 0.6 mm 7 mps 752 mmHg 63%
    09:00 +20°C° 0.8 mm 7 mps 753 mmHg 60%
    10:00 +21°C° 0.8 mm 7 mps 753 mmHg 58%
    11:00 +21°C° 0.8 mm 7 mps 753 mmHg 56%
    12:00 +21°C° 0.8 mm 7 mps 753 mmHg 56%
    13:00 +21°C° 0.8 mm 7 mps 753 mmHg 56%
    14:00 +21°C° 0.8 mm 6 mps 753 mmHg 56%
    15:00 +21°C° 0.8 mm 7 mps 753 mmHg 59%
    16:00 +21°C° 0.8 mm 7 mps 752 mmHg 61%
    17:00 +20°C° 0.8 mm 7 mps 752 mmHg 64%
    18:00 +20°C° 0.5 mm 8 mps 753 mmHg 66%
    19:00 +20°C° 0.5 mm 8 mps 753 mmHg 69%
    20:00 +18°C° 0.5 mm 8 mps 753 mmHg 71%
    21:00 +18°C° 0.4 mm 8 mps 753 mmHg 72%
    22:00 +18°C° 0.4 mm 8 mps 753 mmHg 73%
    23:00 +17°C° 0.4 mm 8 mps 753 mmHg 75%

    27 October, Friday

    Time Temperature Precipitation Wind Pressure Humidity
    00:00 +17°C° 0.1 mm 8 mps 753 mmHg 74%
    01:00 +17°C° 0.1 mm 7 mps 753 mmHg 74%
    02:00 +17°C° 0.1 mm 7 mps 752 mmHg 74%
    03:00 +17°C° 0.2 mm 7 mps 752 mmHg 74%
    04:00 +17°C° 0.2 mm 8 mps 752 mmHg 75%
    05:00 +17°C° 0.2 mm 8 mps 751 mmHg 75%
    06:00 +17°C° 0.1 mm 7 mps 751 mmHg 74%
    07:00 +18°C° 0.1 mm 7 mps 751 mmHg 72%
    08:00 +18°C° 0.1 mm 7 mps 751 mmHg 71%
    09:00 +20°C° 0.1 mm 7 mps 751 mmHg 66%
    10:00 +20°C° 0.1 mm 7 mps 751 mmHg 62%
    11:00 +21°C° 0.1 mm 7 mps 751 mmHg 58%
    12:00 +21°C° 0.1 mm 6 mps 751 mmHg 58%
    13:00 +21°C° 0.1 mm 6 mps 750 mmHg 57%
    14:00 +21°C° 0.1 mm 6 mps 750 mmHg 57%
    15:00 +21°C° 0 mm 6 mps 750 mmHg 59%
    16:00 +20°C° 0 mm 5 mps 749 mmHg 61%
    17:00 +20°C° 0 mm 5 mps 749 mmHg 63%
    18:00 +19°C° 0 mm 5 mps 749 mmHg 65%
    19:00 +19°C° 0 mm 4 mps 749 mmHg 67%
    20:00 +19°C° 0 mm 4 mps 749 mmHg 69%
    21:00 +18°C° 0 mm 3 mps 749 mmHg 70%
    22:00 +18°C° 0 mm 3 mps 748 mmHg 71%
    23:00 +18°C° 0 mm 3 mps 748 mmHg 72%

    28 October, Saturday

    Time Temperature Precipitation Wind Pressure Humidity
    00:00 +17°C° 0 mm 3 mps 748 mmHg 72%
    01:00 +17°C° 0 mm 3 mps 747 mmHg 73%
    02:00 +17°C° 0 mm 3 mps 747 mmHg 73%
    03:00 +17°C° 0 mm 3 mps 747 mmHg 73%
    04:00 +17°C° 0 mm 3 mps 746 mmHg 72%
    05:00 +17°C° 0 mm 3 mps 746 mmHg 72%
    06:00 +17°C° 0 mm 4 mps 746 mmHg 68%
    07:00 +18°C° 0 mm 4 mps 746 mmHg 64%
    08:00 +18°C° 0 mm 4 mps 746 mmHg 61%
    09:00 +20°C° 0 mm 5 mps 746 mmHg 54%
    10:00 +21°C° 0 mm 5 mps 746 mmHg 47%
    11:00 +22°C° 0 mm 5 mps 746 mmHg 41%
    12:00 +22°C° 0 mm 6 mps 746 mmHg 45%
    13:00 +23°C° 0 mm 6 mps 745 mmHg 49%
    14:00 +23°C° 0 mm 7 mps 745 mmHg 54%
    15:00 +22°C° 0 mm 6 mps 745 mmHg 58%
    16:00 +22°C° 0 mm 6 mps 745 mmHg 62%
    17:00 +21°C° 0 mm 6 mps 745 mmHg 66%
    18:00 +21°C° 0 mm 6 mps 745 mmHg 69%
    19:00 +21°C° 0 mm 5 mps 745 mmHg 71%
    20:00 +20°C° 0 mm 5 mps 745 mmHg 74%
    21:00 +20°C° 0 mm 5 mps 745 mmHg 76%
    22:00 +20°C° 0 mm 5 mps 745 mmHg 78%
    23:00 +20°C° 0 mm 5 mps 745 mmHg 79%

    29 October, Sunday

    Time Temperature Precipitation Wind Pressure Humidity
    00:00 +19°C° 0.1 mm 5 mps 745 mmHg 80%
    01:00 +19°C° 0.1 mm 6 mps 744 mmHg 81%
    02:00 +19°C° 0.1 mm 6 mps 744 mmHg 81%
    03:00 +19°C° 0.2 mm 6 mps 744 mmHg 82%
    04:00 +19°C° 0.2 mm 6 mps 744 mmHg 83%
    05:00 +19°C° 0.2 mm 6 mps 743 mmHg 83%
    06:00 +20°C° 0.3 mm 7 mps 743 mmHg 81%
    07:00 +20°C° 0.3 mm 7 mps 743 mmHg 78%
    08:00 +21°C° 0.3 mm 7 mps 743 mmHg 75%
    09:00 +21°C° 0.3 mm 7 mps 744 mmHg 72%
    10:00 +22°C° 0.3 mm 7 mps 744 mmHg 70%
    11:00 +23°C° 0.3 mm 8 mps 744 mmHg 67%
    12:00 +23°C° 0.4 mm 8 mps 743 mmHg 68%
    13:00 +23°C° 0.4 mm 8 mps 743 mmHg 69%
    14:00 +23°C° 0.4 mm 8 mps 743 mmHg 70%
    15:00 +22°C° 0.4 mm 8 mps 743 mmHg 72%
    16:00 +22°C° 0.4 mm 8 mps 743 mmHg 74%
    17:00 +21°C° 0.4 mm 8 mps 743 mmHg 76%
    18:00 +21°C° 0.3 mm 8 mps 743 mmHg 77%
    19:00 +21°C° 0.3 mm 8 mps 743 mmHg 78%
    20:00 +21°C° 0.3 mm 8 mps 743 mmHg 79%
    21:00 +21°C° 0.3 mm 9 mps 743 mmHg 79%
    22:00 +21°C° 0.3 mm 9 mps 743 mmHg 78%
    23:00 +19°C° 0.3 mm 9 mps 743 mmHg 77%

    30 October, Monday

    Time Temperature Precipitation Wind Pressure Humidity
    00:00 +19°C° 0.2 mm 9 mps 743 mmHg 78%
    01:00 +19°C° 0.2 mm 9 mps 743 mmHg 79%
    02:00 +19°C° 0.2 mm 9 mps 743 mmHg 80%
    03:00 +20°C° 0.3 mm 8 mps 743 mmHg 81%
    04:00 +20°C° 0.3 mm 8 mps 743 mmHg 81%
    05:00 +20°C° 0.3 mm 7 mps 743 mmHg 81%
    06:00 +20°C° 0.6 mm 8 mps 743 mmHg 80%
    07:00 +20°C° 0.6 mm 8 mps 743 mmHg 79%
    08:00 +20°C° 0.6 mm 8 mps 743 mmHg 78%
    09:00 +21°C° 0.3 mm 8 mps 743 mmHg 74%
    10:00 +22°C° 0.3 mm 9 mps 744 mmHg 71%
    11:00 +23°C° 0.3 mm 9 mps 744 mmHg 67%
    12:00 +23°C° 0.4 mm 9 mps 744 mmHg 66%
    13:00 +23°C° 0.4 mm 10 mps 744 mmHg 65%
    14:00 +23°C° 0.4 mm 10 mps 744 mmHg 64%
    15:00 +22°C° 0.4 mm 9 mps 744 mmHg 64%
    16:00 +22°C° 0.4 mm 9 mps 744 mmHg 64%
    17:00 +21°C° 0.4 mm 8 mps 744 mmHg 63%
    18:00 +21°C° 0.2 mm 8 mps 744 mmHg 64%
    19:00 +21°C° 0.2 mm 8 mps 745 mmHg 65%
    20:00 +20°C° 0.2 mm 8 mps 745 mmHg 66%
    21:00 +20°C° 0 mm 8 mps 746 mmHg 68%
    22:00 +20°C° 0 mm 8 mps 747 mmHg 69%
    23:00 +19°C° 0 mm 9 mps 747 mmHg 71%
    Show more